Date,TemperatureHighF,TemperatureAvgF,TemperatureLowF,DewpointHighF,DewpointAvgF,DewpointLowF,HumidityHigh,HumidityAvg,HumidityLow,PressureMaxIn,PressureMinIn,WindSpeedMaxMPH,WindSpeedAvgMPH,GustSpeedMaxMPH,PrecipitationSumIn
2014-1-1,60.7,53.8,46.3,56.2,50.2,41.4,92,88,83,30.18,30.07,6,1,9,0.01
2014-1-2,59.2,53.7,48.1,56.6,50.4,41.2,95,89,76,30.14,30.03,4,1,7,0.01
2014-1-3,58.9,51.7,44.0,55.0,49.4,42.3,95,92,86,30.09,29.96,5,0,6,0.01
2014-1-4,63.4,55.8,49.5,57.5,51.7,43.9,93,86,77,30.07,29.98,2,0,4,0.00
2014-1-5,63.5,55.0,45.5,57.4,46.3,29.6,95,76,37,30.18,30.07,5,1,6,0.01
2014-1-6,65.5,57.4,50.4,57.1,37.4,22.3,77,48,31,30.23,30.12,4,0,7,0.00
2014-1-7,64.8,56.8,49.1,54.1,40.9,24.9,89,58,33,30.18,30.08,3,0,5,0.00
2014-1-8,62.3,55.5,48.1,56.2,50.7,42.2,91,84,76,30.17,30.06,4,0,5,0.00
2014-1-9,62.8,55.4,51.3,55.8,51.4,48.6,92,86,78,30.14,30.02,4,0,8,0.00
2014-1-10,65.2,55.3,48.3,58.6,51.8,46.4,93,88,77,30.18,30.07,8,0,8,0.01
2014-1-11,63.1,55.8,48.1,57.2,51.7,44.1,93,86,75,30.20,30.08,6,1,7,0.00
2014-1-12,62.9,56.0,51.6,57.7,53.3,50.2,95,91,83,30.20,30.07,4,1,8,0.01
2014-1-13,71.4,60.4,49.1,50.0,38.9,28.3,90,48,24,30.33,30.18,4,1,7,0.00
2014-1-14,83.8,65.8,54.4,57.2,30.7,15.1,62,31,9,30.33,30.17,3,0,5,0.00
2014-1-15,75.5,65.3,56.9,55.5,34.3,23.1,59,32,21,30.24,30.11,4,0,6,0.00
2014-1-16,71.2,62.8,55.7,56.8,38.6,25.2,69,42,25,30.15,30.04,3,0,5,0.00
2014-1-17,74.0,62.9,56.3,53.9,35.4,23.8,60,36,26,30.14,30.04,4,0,7,0.00
2014-1-18,66.5,58.6,50.6,52.1,38.6,26.0,64,48,31,30.13,30.02,4,1,7,0.00
2014-1-19,68.3,58.6,51.8,57.8,41.5,27.4,73,54,36,30.15,30.06,2,0,3,0.00
2014-1-20,64.4,56.5,50.0,56.3,44.6,29.1,86,65,43,30.20,30.10,3,1,6,0.00
2014-1-21,63.4,58.2,49.9,57.8,48.9,38.0,85,72,51,30.19,30.07,2,0,6,0.00
2014-1-22,64.0,57.4,51.5,57.3,52.8,43.1,94,85,73,30.09,29.94,2,0,10,0.00
2014-1-23,60.9,54.7,46.0,55.7,51.6,44.4,95,89,80,30.13,29.95,3,0,5,0.00
2014-1-24,62.8,58.6,53.7,58.2,54.0,49.7,91,85,72,30.25,30.13,2,0,4,0.00
2014-1-25,68.1,61.0,53.6,61.5,54.7,46.4,88,80,58,30.24,30.14,2,0,5,0.00
2014-1-26,64.3,58.1,51.2,57.0,50.8,42.7,89,77,60,30.18,30.05,5,1,9,0.00
2014-1-27,67.3,58.6,51.8,59.9,54.0,48.4,91,85,76,30.15,30.04,2,0,6,0.00
2014-1-28,64.3,57.0,52.4,59.4,54.4,50.2,95,91,84,30.18,30.06,5,0,7,0.00
2014-1-29,64.3,56.9,52.0,60.4,54.8,50.3,96,93,87,30.13,29.98,5,1,7,0.00
2014-1-30,59.5,57.5,55.1,57.2,54.8,51.9,93,91,86,30.01,29.92,5,1,7,0.00
2014-1-31,63.0,57.6,52.3,54.3,51.1,45.7,88,79,72,30.03,29.93,7,2,11,0.00
2014-2-1,63.3,53.6,44.4,50.6,43.6,36.7,83,70,51,30.10,30.00,14,2,17,0.00
2014-2-2,61.1,53.9,47.0,53.1,40.2,24.5,87,61,38,30.15,30.00,7,1,10,0.06
2014-2-3,61.6,53.9,46.2,51.6,47.5,43.4,91,80,65,30.04,29.94,6,0,10,0.12
2014-2-4,60.9,53.9,47.9,51.1,46.4,42.0,81,76,68,30.13,30.04,5,1,7,0.00
2014-2-5,63.2,55.1,47.3,51.8,47.1,41.5,82,75,63,30.17,30.05,7,1,10,0.00
2014-2-6,60.2,55.0,51.4,53.8,50.2,45.8,94,84,77,30.12,30.04,6,1,8,0.21
2014-2-7,62.3,56.6,53.3,55.6,52.9,50.4,96,88,74,30.26,30.07,3,1,8,0.02
2014-2-8,64.9,57.1,50.0,56.7,52.4,47.2,91,85,69,30.31,30.23,10,2,13,0.00
2014-2-9,64.6,58.2,55.1,58.4,53.8,51.3,90,85,77,30.27,30.14,7,1,10,0.00
2014-2-10,67.3,57.9,53.1,59.8,53.9,50.2,92,87,75,30.19,30.06,5,1,7,0.00
2014-2-11,60.4,55.7,52.3,57.7,53.9,50.6,96,94,90,30.14,30.06,6,1,9,0.01
2014-2-12,64.5,57.6,50.0,59.6,53.8,48.0,96,87,77,30.18,30.06,6,1,7,0.00
2014-2-13,66.2,58.8,51.6,60.5,52.7,42.3,90,80,61,30.11,30.00,5,1,8,0.00
2014-2-14,62.7,56.0,50.3,57.9,52.2,43.0,94,87,75,30.09,29.99,5,1,7,0.00
2014-2-15,65.7,56.9,48.5,60.7,53.6,44.9,94,89,82,30.07,29.98,5,1,7,0.01
2014-2-16,66.5,58.0,52.2,60.8,55.2,50.2,95,91,82,30.11,30.00,2,0,5,0.01
2014-2-17,65.6,57.7,52.7,59.3,53.8,49.0,92,87,78,30.12,30.03,5,0,9,0.00
2014-2-18,64.7,58.2,54.5,56.2,52.5,49.1,87,82,73,30.11,30.00,6,0,9,0.00
2014-2-19,65.8,57.7,53.5,57.3,53.0,49.8,90,84,73,30.05,29.93,3,0,7,0.00
2014-2-20,64.6,58.3,48.9,58.8,51.9,42.1,95,81,44,30.08,29.97,5,1,8,0.01
2014-2-21,67.2,59.5,53.6,60.6,54.8,46.2,93,85,75,30.03,29.91,2,0,9,0.00
2014-2-22,65.3,57.4,50.8,57.4,51.9,43.8,92,82,64,29.97,29.89,2,0,4,0.00
2014-2-23,65.9,56.0,48.2,58.1,50.0,40.7,90,80,71,30.04,29.94,2,0,6,0.00
2014-2-24,67.4,57.6,50.2,59.2,53.4,48.0,93,86,74,30.07,29.96,3,0,7,0.01
2014-2-25,66.0,60.1,53.5,57.2,53.5,49.1,85,79,73,30.09,30.01,1,0,5,0.00
2014-2-26,63.9,60.6,57.9,56.9,54.0,51.4,84,79,74,30.11,30.05,4,1,8,0.00
2014-2-27,64.0,61.4,59.6,61.0,57.8,54.2,96,88,81,30.07,29.99,5,3,10,0.20
2014-2-28,62.2,59.3,56.1,60.8,57.0,54.4,96,92,87,29.81,29.72,11,6,21,0.68
2014-3-1,62.1,58.2,52.3,57.8,55.0,50.6,94,89,83,30.00,29.81,8,3,18,0.43
2014-3-2,61.3,56.1,52.2,58.1,53.7,50.8,95,92,85,30.19,30.01,3,0,5,0.06
2014-3-3,62.9,57.9,52.7,58.0,54.8,50.7,94,90,84,30.17,30.06,9,2,12,0.01
2014-3-4,67.0,57.9,53.2,58.5,54.1,51.2,94,87,74,30.10,30.01,1,0,5,0.00
2014-3-5,64.7,57.6,52.1,60.1,55.2,50.1,94,92,84,30.13,30.04,10,2,12,0.01
2014-3-6,65.8,60.5,56.4,60.2,57.8,55.0,95,91,82,30.12,30.01,4,1,7,0.00
2014-3-7,68.0,61.4,56.4,61.6,57.4,50.8,94,87,78,30.04,29.94,6,1,10,0.00
2014-3-8,71.4,63.0,53.6,61.1,50.8,37.4,90,67,35,30.14,30.00,6,2,10,0.00
2014-3-9,84.3,70.0,60.4,56.0,39.5,27.0,62,35,16,30.16,30.06,5,1,9,0.00
2014-3-10,71.9,63.0,56.2,59.2,47.5,35.2,83,59,32,30.10,30.01,2,0,6,0.00
2014-3-11,67.5,59.6,52.4,61.1,53.4,43.7,88,80,72,30.04,29.94,3,1,6,0.00
2014-3-12,70.6,60.9,54.4,61.3,56.1,51.8,92,84,72,30.04,29.98,5,1,8,0.00
2014-3-13,66.6,60.4,55.9,56.5,53.5,49.8,88,78,66,30.05,29.95,3,1,6,0.00
2014-3-14,70.2,60.4,51.2,61.2,54.7,47.2,88,82,72,30.15,30.05,3,0,5,0.00
2014-3-15,70.6,61.0,53.2,62.3,56.2,50.7,94,85,71,30.23,30.14,5,1,10,0.00
2014-3-16,72.6,64.5,55.0,60.3,53.6,42.8,79,68,57,30.25,30.10,5,1,6,0.00
2014-3-17,66.5,61.2,55.5,60.9,54.4,40.6,87,79,53,30.11,29.83,5,1,7,0.00
2014-3-18,70.1,61.8,57.3,59.5,55.2,51.2,87,79,67,29.96,29.83,6,1,8,0.00
2014-3-19,68.7,60.5,52.7,60.3,55.7,50.0,92,84,74,30.09,29.97,3,0,6,0.00
2014-3-20,69.0,60.0,54.3,60.9,55.6,51.9,94,86,73,30.08,29.97,4,0,8,0.01
2014-3-21,68.5,60.8,56.7,55.4,53.3,51.5,87,77,61,30.05,29.98,4,0,6,0.00
2014-3-22,69.0,61.3,56.9,58.0,53.5,50.9,82,76,67,30.14,30.03,6,1,9,0.00
2014-3-23,66.3,59.1,53.2,57.8,53.9,49.5,88,83,72,30.17,30.05,8,1,10,0.00
2014-3-24,62.8,59.9,57.7,57.6,56.0,54.6,93,87,81,30.15,30.04,4,1,8,0.00
2014-3-25,63.7,59.4,57.5,58.8,56.1,54.8,95,89,83,30.07,29.94,4,0,5,0.02
2014-3-26,67.0,60.4,58.0,58.5,54.6,52.7,90,81,72,30.03,29.93,13,3,13,0.04
2014-3-27,68.7,59.9,55.3,57.7,53.2,49.6,85,79,67,30.13,30.02,8,2,13,0.00
2014-3-28,68.4,59.1,52.3,59.0,52.9,47.4,85,80,71,30.20,30.11,4,1,8,0.00
2014-3-29,66.4,59.5,52.4,59.1,55.2,49.2,91,86,76,30.18,30.00,7,2,9,0.00
2014-3-30,65.7,60.4,55.3,57.5,54.7,49.9,91,82,72,30.10,30.01,8,2,10,0.00
2014-3-31,66.5,57.4,49.8,56.8,50.5,42.9,84,78,71,30.08,30.03,6,2,10,0.00
2014-4-1,61.2,56.5,52.9,52.7,50.1,48.4,92,80,65,30.07,30.00,8,3,11,0.09
2014-4-2,60.4,54.6,49.4,51.2,48.7,45.9,91,81,68,30.12,29.99,12,3,16,0.08
2014-4-3,65.7,54.8,46.4,55.8,48.0,41.5,85,78,67,30.18,30.08,6,1,7,0.00
2014-4-4,63.1,55.8,51.2,53.7,50.5,46.6,90,83,70,30.09,30.00,6,1,10,0.00
2014-4-5,64.9,57.2,51.3,56.1,49.6,45.0,85,76,63,30.08,29.99,6,1,9,0.00
2014-4-6,68.9,60.0,51.4,57.2,50.9,43.4,77,72,66,30.13,30.03,8,1,10,0.00
2014-4-7,70.4,63.3,54.1,60.6,50.4,40.0,76,63,52,30.13,30.05,6,1,7,0.00
2014-4-8,71.6,63.4,55.4,60.7,52.4,43.5,83,68,51,30.13,30.01,4,1,7,0.00
2014-4-9,64.7,58.8,53.0,59.4,53.5,46.7,90,83,68,30.06,29.96,6,1,10,0.00
2014-4-10,59.5,55.8,49.6,56.4,53.3,48.0,95,92,88,30.03,29.94,4,1,7,0.00
2014-4-11,67.7,59.7,53.9,61.5,55.8,51.0,94,87,78,29.98,29.89,3,0,7,0.01
2014-4-12,64.3,59.5,57.9,56.1,53.1,51.3,89,80,69,30.01,29.92,5,2,8,0.00
2014-4-13,67.5,60.2,57.4,56.4,52.5,49.6,86,76,66,30.07,29.98,5,1,7,0.00
2014-4-14,65.6,59.2,52.9,60.0,55.0,49.8,91,86,81,30.08,30.00,7,2,12,0.00
2014-4-15,62.6,58.7,55.9,57.4,55.7,53.6,94,90,83,30.05,29.87,7,1,10,0.00
2014-4-16,64.8,59.6,56.8,57.1,54.8,52.8,89,84,76,29.92,29.83,4,1,6,0.00
2014-4-17,65.3,60.7,58.4,58.6,55.7,54.5,88,84,78,29.95,29.88,5,2,8,0.00
2014-4-18,69.3,61.9,59.2,60.4,56.7,54.8,88,83,72,29.97,29.89,4,1,7,0.00
2014-4-19,64.3,60.0,55.8,59.0,56.1,52.0,91,87,83,30.08,29.96,8,2,12,0.00
2014-4-20,70.8,63.1,58.6,62.5,58.6,55.4,91,85,74,30.10,30.02,1,0,5,0.00
2014-4-21,71.2,62.9,59.3,62.8,59.1,57.1,94,88,74,30.09,29.98,3,0,7,0.00
2014-4-22,71.3,61.9,58.1,61.0,56.1,53.0,88,82,70,30.02,29.93,7,1,9,0.00
2014-4-23,70.7,62.1,53.4,60.0,53.7,46.9,86,74,63,30.00,29.93,9,1,10,0.00
2014-4-24,69.1,62.4,55.4,60.8,55.3,48.3,86,78,69,30.02,29.94,2,0,4,0.00
2014-4-25,64.6,60.9,56.5,57.6,56.1,53.3,91,84,75,29.97,29.86,8,3,11,0.12
2014-4-26,62.7,57.9,55.7,55.0,51.3,48.5,92,79,70,30.03,29.83,17,7,28,0.02
2014-4-27,70.4,58.6,53.0,58.5,52.5,48.9,87,80,66,30.05,30.00,5,1,9,0.00
2014-4-28,69.3,60.6,53.9,59.9,54.0,47.9,84,79,72,30.05,29.92,7,1,10,0.00
2014-4-29,95.3,71.2,55.1,59.2,48.2,24.7,86,55,9,30.05,29.93,3,0,8,0.00
2014-4-30,95.3,78.3,61.7,49.7,29.1,18.0,60,21,7,30.02,29.89,2,0,9,0.00
2014-5-1,85.4,72.1,62.9,56.2,43.4,22.7,61,39,10,30.03,29.94,6,2,11,0.00
2014-5-2,77.5,68.7,58.3,62.7,48.8,36.0,75,50,36,30.00,29.90,4,1,8,0.00
2014-5-3,78.7,68.0,60.0,64.4,57.1,46.3,81,69,54,29.94,29.88,3,0,9,0.00
2014-5-4,71.8,63.5,56.8,63.0,57.8,51.6,89,82,73,30.02,29.94,3,1,5,0.00
2014-5-5,65.2,62.4,60.2,57.0,55.8,54.3,85,79,72,30.05,29.97,5,2,8,0.00
2014-5-6,65.3,60.6,57.8,55.2,53.3,51.3,84,77,64,29.96,29.88,8,3,13,0.00
2014-5-7,64.2,60.4,56.6,56.2,53.9,51.8,85,79,72,30.04,29.90,7,2,10,0.00
2014-5-8,69.0,61.0,58.3,55.5,52.8,50.4,82,75,62,30.10,30.02,5,2,9,0.00
2014-5-9,67.9,60.7,54.6,59.0,55.2,50.2,88,82,71,30.10,30.00,3,0,4,0.00
2014-5-10,69.2,62.9,58.3,60.6,56.7,53.4,86,80,74,30.00,29.86,4,1,7,0.00
2014-5-11,71.2,64.0,54.6,59.7,52.9,41.7,84,68,43,29.97,29.87,10,2,15,0.00
2014-5-12,78.4,68.1,57.3,57.1,48.1,35.6,69,50,29,30.02,29.94,7,2,10,0.00
2014-5-13,95.8,74.3,62.4,55.4,40.9,28.7,52,33,10,30.07,29.99,5,1,8,0.00
2014-5-14,91.7,77.4,68.7,58.6,38.8,22.2,53,28,9,30.04,29.94,4,0,8,0.00
2014-5-15,86.8,74.0,64.5,60.3,47.8,34.0,61,41,27,30.00,29.92,4,1,7,0.00
2014-5-16,78.6,71.1,63.9,65.6,53.9,42.1,87,56,32,29.97,29.89,2,0,5,0.00
2014-5-17,69.6,66.3,63.4,63.9,62.6,59.2,94,88,82,29.94,29.85,5,2,8,0.00
2014-5-18,70.6,65.0,62.8,61.9,59.2,57.9,86,82,73,29.92,29.87,6,2,9,0.00
2014-5-19,67.2,64.5,61.7,59.0,57.5,55.7,86,78,73,29.97,29.91,7,3,9,0.00
2014-5-20,70.3,63.7,60.7,58.9,55.9,52.6,85,76,62,30.03,29.96,8,2,10,0.00
2014-5-21,68.7,62.2,55.9,58.9,54.8,50.2,83,77,69,30.02,29.97,5,2,9,0.00
2014-5-22,65.2,62.8,61.4,58.5,56.8,56.0,85,81,77,30.04,29.95,3,0,6,0.00
2014-5-23,71.2,64.6,61.3,62.1,58.3,55.8,85,80,73,30.05,29.99,6,2,11,0.00
2014-5-24,65.9,63.6,61.4,59.9,58.6,57.4,88,84,80,30.04,29.97,4,1,5,0.00
2014-5-25,73.0,66.6,62.2,64.1,60.9,58.3,89,82,73,30.00,29.90,5,1,7,0.00
2014-5-26,75.1,67.8,64.1,65.5,62.1,60.1,88,82,70,29.99,29.92,2,0,6,0.00
2014-5-27,72.2,66.1,63.6,65.0,61.6,60.2,89,86,78,30.00,29.93,3,1,5,0.00
2014-5-28,70.1,65.1,63.3,62.6,60.5,59.2,89,85,77,29.96,29.86,4,1,7,0.00
2014-5-29,70.4,66.1,62.8,62.1,60.4,59.0,88,82,74,29.94,29.89,6,2,7,0.00
2014-5-30,73.9,66.8,60.5,65.5,61.5,56.6,89,83,75,29.92,29.85,1,0,5,0.00
2014-5-31,71.8,65.6,59.8,64.1,61.2,57.2,93,86,76,29.93,29.86,5,1,10,0.00
2014-6-1,75.4,66.8,62.6,64.9,61.7,59.3,90,84,70,29.91,29.83,8,1,11,0.00
2014-6-2,71.0,65.3,61.4,63.1,60.7,58.8,92,85,75,29.91,29.85,10,3,13,0.01
2014-7-4,74.0,69.4,66.1,68.2,65.6,63.6,92,88,81,30.02,29.92,2,0,5,0.00
2014-7-5,80.7,72.6,66.8,71.8,67.4,64.1,92,84,73,30.05,29.98,3,0,8,0.00
2014-7-6,78.3,72.1,66.8,71.7,66.9,62.8,90,84,76,30.03,29.91,6,2,11,0.00
2014-7-7,74.8,70.2,64.4,69.4,66.0,61.1,91,86,79,29.94,29.87,2,1,6,0.00
2014-7-8,78.6,70.9,67.7,69.2,65.7,64.3,90,84,72,29.98,29.90,2,0,6,0.00
2014-7-9,77.7,71.4,67.7,68.4,65.3,63.0,86,81,73,29.99,29.90,2,0,6,0.00
2014-7-10,79.2,71.4,68.1,68.2,65.4,63.7,88,82,69,29.99,29.90,9,2,11,0.00
2014-7-11,76.3,70.4,67.1,67.0,64.7,63.1,89,83,71,30.01,29.96,10,2,13,0.00
2014-7-12,74.8,69.3,63.8,67.2,64.7,60.8,91,85,75,30.03,29.93,8,1,10,0.00
2014-7-13,72.5,68.9,65.3,67.7,65.0,62.6,92,88,82,29.96,29.88,5,1,8,0.00
2014-7-14,73.3,69.3,67.4,68.2,65.6,64.3,90,88,84,30.02,29.92,4,1,7,0.00
2014-7-15,69.4,68.4,67.7,66.6,64.8,62.7,93,88,84,30.07,29.99,2,0,5,0.00
2014-7-16,78.3,70.9,67.2,68.1,64.2,62.4,85,80,69,30.07,29.97,5,1,9,0.00
2014-7-17,77.2,70.0,64.6,66.7,63.6,60.5,88,80,68,30.06,29.98,7,2,11,0.00
2014-7-18,73.7,68.7,63.1,65.6,62.9,59.8,89,82,73,30.04,29.96,8,3,11,0.00
2014-7-19,71.4,67.8,64.7,66.0,63.5,61.1,89,86,82,30.01,29.94,3,0,6,0.00
2014-7-20,77.2,69.7,65.1,67.9,64.5,61.5,89,84,71,30.03,29.95,7,2,9,0.00
2014-7-21,74.3,69.3,64.5,68.1,64.7,61.2,90,85,79,30.08,30.00,9,3,13,0.00
2014-7-22,73.7,68.9,64.6,67.5,65.0,62.3,93,87,76,30.07,29.99,7,2,11,0.00
2014-7-23,74.7,69.2,63.9,67.2,64.2,60.2,89,84,76,30.02,29.89,7,2,10,0.00
2014-7-24,75.5,69.9,62.5,70.0,66.2,59.8,92,88,81,29.92,29.75,7,1,9,0.00
2014-7-25,75.3,70.7,68.7,69.8,67.3,66.1,94,89,82,29.93,29.85,4,1,9,0.00
2014-7-26,77.7,71.1,67.6,70.7,67.1,64.9,93,88,78,30.01,29.91,4,1,6,0.00
2014-7-27,76.0,70.8,68.0,69.0,67.2,65.6,93,88,79,30.04,29.93,8,2,13,0.00
2014-7-28,75.6,72.0,69.0,70.9,68.1,64.1,94,88,71,30.08,29.98,10,2,12,0.00
2014-7-29,73.7,69.8,64.4,68.9,66.2,61.7,92,88,85,30.05,29.95,7,2,9,0.00
2014-7-30,79.8,71.4,64.6,72.3,67.4,62.5,93,88,75,29.98,29.90,6,1,9,0.00
2014-7-31,75.5,70.4,66.0,70.7,66.8,63.8,93,89,82,29.95,29.86,8,2,12,0.00
2014-8-1,73.5,70.2,68.4,68.1,66.4,65.4,91,88,81,29.94,29.87,2,0,5,0.00
2014-8-2,72.3,70.3,68.9,69.1,67.3,65.8,93,90,87,29.98,29.88,3,1,8,0.01
2014-8-3,79.8,72.7,70.0,74.3,69.8,67.9,95,91,80,29.96,29.90,5,1,7,0.02
2014-8-4,80.0,72.5,66.8,72.9,68.9,63.9,94,89,76,30.01,29.94,8,1,12,0.00
2014-8-5,74.4,67.9,61.4,67.0,63.7,59.1,93,87,76,30.05,29.99,8,2,12,0.00
2014-8-6,72.6,67.9,64.5,64.4,62.5,60.5,91,83,75,30.08,29.97,9,3,11,0.00
2014-8-7,78.1,69.2,62.5,67.5,63.5,59.8,91,82,66,30.02,29.90,3,0,5,0.00
2014-8-8,75.8,70.5,67.6,66.9,64.8,62.6,88,82,73,29.96,29.90,2,0,5,0.00
2014-8-9,79.1,71.3,68.3,70.1,66.1,64.6,90,84,74,29.99,29.93,5,1,8,0.00
2014-8-10,79.9,70.9,65.2,70.3,66.3,63.0,93,86,72,30.00,29.92,3,1,6,0.00
2014-8-11,77.2,69.8,67.0,70.2,66.4,64.6,93,89,79,29.98,29.92,6,2,11,0.00
2014-8-12,75.3,69.2,65.5,69.8,65.8,63.4,94,89,80,30.00,29.92,9,2,11,0.00
2014-8-13,76.5,69.5,66.3,69.7,65.3,62.9,92,87,76,30.00,29.93,8,2,10,0.00
2014-8-14,76.7,69.3,64.9,67.9,64.5,61.9,91,85,74,29.98,29.92,6,1,9,0.00
2014-8-15,73.2,68.7,63.7,68.7,65.2,61.0,92,89,85,30.00,29.92,7,2,10,0.00
2014-8-16,73.3,69.4,65.0,68.7,65.8,62.6,92,88,78,30.02,29.92,7,2,11,0.00
2014-8-17,73.0,69.0,64.5,68.3,65.8,62.4,93,90,85,29.99,29.86,7,2,9,0.01
2014-8-18,76.4,70.0,65.6,70.0,66.1,63.2,93,87,79,29.90,29.81,3,0,6,0.00
2014-8-19,73.5,70.2,68.6,66.5,63.7,62.2,86,80,73,29.93,29.87,6,2,8,0.00
2014-8-20,79.5,71.4,66.5,68.3,64.1,61.2,86,78,65,29.96,29.89,6,1,8,0.00
2014-8-21,75.4,70.4,66.1,67.9,65.4,62.5,90,84,75,29.97,29.90,9,2,11,0.00
2014-8-22,78.7,71.3,66.4,70.7,66.6,63.8,93,85,72,30.00,29.93,5,0,7,0.00
2014-8-23,78.7,70.7,63.9,68.2,64.5,60.6,90,81,66,29.99,29.87,6,1,8,0.00
2014-8-24,78.9,70.5,64.1,67.1,64.2,60.2,88,81,67,29.93,29.83,7,1,11,0.00
2014-8-25,73.6,69.5,66.3,67.7,64.7,63.2,90,85,77,29.96,29.87,11,3,13,0.00
2014-8-26,73.8,68.9,64.1,67.3,64.6,60.8,90,86,80,30.00,29.94,8,2,12,0.00
2014-8-27,77.3,70.8,64.1,71.0,66.0,61.1,91,85,75,30.04,29.98,5,1,8,0.00
2014-8-28,76.8,71.4,65.8,69.7,65.0,59.7,85,80,75,30.02,29.89,8,2,11,0.00
2014-8-29,80.9,70.6,63.4,71.0,65.8,59.8,90,85,72,29.91,29.81,9,1,11,0.00
2014-8-30,78.9,71.8,66.9,70.3,67.1,63.9,91,85,73,29.86,29.75,4,0,6,0.00
2014-8-31,77.2,72.7,69.7,70.1,68.3,66.3,91,86,77,29.86,29.79,3,1,5,0.00
2014-9-1,75.6,71.8,69.0,67.9,66.2,64.3,87,83,76,29.86,29.79,4,2,7,0.00
2014-9-2,78.7,72.7,67.6,69.7,66.4,62.7,87,81,73,29.87,29.78,3,0,7,0.00
2014-9-3,79.6,73.5,70.4,69.4,66.4,64.5,86,79,69,29.82,29.72,5,0,8,0.00
2014-9-4,79.7,72.8,67.5,68.3,65.5,63.8,88,78,65,29.81,29.73,6,1,9,0.00
2014-9-5,75.7,70.3,65.3,68.1,65.6,62.3,91,85,76,29.91,29.82,8,2,13,0.00
2014-9-6,75.0,70.8,66.7,70.0,67.2,64.0,92,88,83,29.94,29.81,11,2,13,0.00
2014-9-7,79.1,73.0,67.6,72.8,68.8,64.6,91,87,79,29.84,29.75,5,1,6,0.00
2014-9-8,78.0,74.2,71.8,73.0,70.3,68.3,92,88,83,29.89,29.82,6,1,7,0.00
2014-9-9,82.0,74.3,69.6,73.2,69.9,66.0,92,87,73,29.93,29.86,5,1,9,0.00
2014-9-10,76.4,70.9,63.2,70.1,66.6,60.8,93,86,79,29.93,29.81,8,2,11,0.00
2014-9-11,77.6,72.8,67.3,72.4,68.1,63.4,89,85,78,29.88,29.79,7,2,10,0.00
2014-9-12,76.0,71.8,67.1,71.2,68.3,64.4,93,89,84,29.85,29.75,7,2,10,0.00
2014-9-13,78.2,72.2,67.4,72.6,68.4,64.7,92,88,79,29.80,29.69,7,1,11,0.00
2014-9-14,79.1,73.4,67.8,72.8,68.6,65.1,91,85,75,29.78,29.69,5,1,8,0.00
2014-9-15,80.8,75.0,69.5,73.3,69.6,66.7,93,84,71,29.81,29.73,7,1,9,0.00
2014-9-16,81.9,76.4,70.8,72.3,68.2,65.7,85,76,58,29.80,29.67,6,1,8,0.00
2014-9-17,78.5,74.4,70.2,71.9,68.3,65.9,89,81,74,29.80,29.71,7,1,9,0.00
2014-9-18,74.8,70.5,66.1,69.3,66.5,63.4,91,87,82,29.91,29.81,7,1,10,0.00
2014-9-19,78.2,72.2,67.8,68.0,65.2,63.6,88,79,68,29.91,29.84,6,1,6,0.00
2014-9-20,76.0,70.2,65.1,68.1,64.7,61.6,89,83,73,29.97,29.90,6,1,6,0.00
2014-9-21,79.0,70.3,66.0,67.2,64.1,60.7,89,81,65,30.01,29.92,10,2,11,0.00
2014-9-22,75.1,68.8,62.2,68.9,64.8,59.5,93,87,78,30.01,29.91,9,1,9,0.00
2014-9-23,74.3,68.6,64.2,69.2,65.5,61.9,95,90,83,30.01,29.89,10,2,11,0.00
2014-9-24,75.1,69.1,63.3,69.3,65.3,60.6,93,88,76,29.94,29.84,10,2,12,0.01
2014-9-25,77.7,71.1,66.3,70.6,66.0,62.2,91,84,77,29.94,29.86,11,1,11,0.00
2014-9-26,78.5,70.2,65.0,71.3,66.3,60.8,94,88,75,29.92,29.84,8,1,8,0.00
2014-9-27,74.8,67.7,62.0,66.0,61.5,57.3,87,81,73,29.92,29.82,10,1,10,0.00
2014-9-28,74.1,67.5,63.0,65.3,61.0,57.8,85,80,71,29.95,29.86,8,1,8,0.00
2014-9-29,72.8,66.9,60.5,66.0,61.5,56.8,89,83,74,29.97,29.85,16,2,16,0.00
2014-9-30,76.2,68.3,61.3,70.2,63.7,57.4,92,85,80,29.90,29.77,7,1,7,0.00
2014-10-1,77.3,69.5,63.9,69.3,64.5,60.6,92,84,73,29.89,29.77,5,0,5,0.00
2014-10-2,80.5,70.8,62.0,70.7,61.1,44.1,94,74,38,29.97,29.88,6,0,6,0.01
2014-10-3,82.1,73.1,64.0,68.3,52.8,38.1,71,50,32,30.03,29.92,5,0,5,0.00
2014-10-4,86.8,73.3,64.1,70.3,57.2,37.4,90,59,27,29.96,29.84,6,0,6,0.00
2014-10-5,79.4,69.4,60.3,71.1,63.2,51.2,90,81,71,29.94,29.84,3,0,3,0.00
2014-10-6,79.3,69.9,60.2,71.7,62.1,47.4,87,77,48,29.93,29.83,7,0,7,0.00
2014-10-7,78.7,71.4,63.3,70.5,65.7,57.7,91,82,68,29.93,29.82,7,1,7,0.00
2014-10-8,79.3,70.0,61.3,71.8,65.9,58.8,93,87,77,29.90,29.82,6,0,6,0.00
2014-10-9,74.2,69.4,65.0,65.6,62.8,59.0,87,80,73,29.97,29.90,7,1,7,0.00
2014-10-10,75.4,68.8,62.8,67.7,63.9,59.5,90,85,75,30.02,29.93,7,1,7,0.00
2014-10-11,76.8,69.1,65.4,68.3,64.4,61.5,91,85,73,30.01,29.91,9,1,9,0.00
2014-10-12,73.9,69.0,65.8,67.2,64.7,63.0,92,86,78,29.95,29.87,5,0,5,0.00
2014-10-13,75.6,69.4,65.2,68.4,65.0,62.2,91,86,76,30.05,29.95,5,0,5,0.00
2014-10-14,77.0,69.7,65.1,66.9,63.9,61.3,90,82,70,30.02,29.92,4,0,4,0.00
2014-10-15,77.3,70.0,64.9,66.4,62.3,59.2,85,77,62,30.02,29.95,11,1,11,0.00
2014-10-16,73.5,68.0,62.2,66.2,61.8,56.3,86,80,74,30.04,29.93,9,1,9,0.00
2014-10-17,76.5,68.6,63.6,67.3,62.5,59.1,88,81,71,30.01,29.93,12,1,12,0.00
2014-10-18,75.7,68.4,62.6,65.8,62.1,58.4,87,81,70,29.96,29.84,8,1,8,0.00
2014-10-19,76.0,67.7,61.0,67.4,62.2,56.1,90,83,73,29.94,29.84,9,1,9,0.00
2014-10-20,75.3,68.3,64.2,67.7,63.5,61.2,92,85,73,29.97,29.88,7,0,7,0.00
2014-10-21,74.5,67.5,62.7,67.2,63.2,59.5,91,86,76,29.95,29.85,9,1,9,0.00
2014-10-22,74.2,66.9,60.8,68.3,63.1,57.8,92,88,81,29.98,29.89,7,1,7,0.00
2014-10-23,74.3,66.7,58.8,68.2,62.3,53.2,92,86,79,30.02,29.92,7,1,7,0.00
2014-10-24,78.0,67.6,58.5,69.1,62.4,53.3,92,84,72,30.02,29.93,2,0,3,0.01
2014-10-25,73.3,67.7,63.1,67.6,63.0,58.1,90,85,78,30.07,29.98,12,2,12,0.00
2014-10-26,72.2,66.1,62.0,65.9,61.3,57.6,91,85,79,30.03,29.90,6,0,6,0.00
2014-10-27,73.4,65.1,57.0,65.8,59.5,53.1,88,82,75,29.98,29.90,7,0,7,0.00
2014-10-28,73.8,65.9,59.1,66.9,60.7,54.9,87,83,76,30.05,29.97,10,1,10,0.00
2014-10-29,73.0,63.7,59.5,67.0,59.7,55.8,90,87,78,30.06,30.01,5,0,5,0.00
2014-11-3,74.2,65.9,56.2,64.8,53.4,44.1,80,65,44,30.17,30.03,14,3,14,0.00
2014-11-4,73.3,63.1,53.5,60.7,44.5,30.2,68,51,33,30.22,30.09,12,1,12,0.00
2014-11-5,75.7,65.8,54.5,65.6,46.2,30.2,76,51,25,30.12,30.01,7,0,7,0.00
2014-11-6,77.2,68.6,57.7,64.9,46.1,30.3,72,45,26,30.17,30.06,7,1,7,0.00
2014-11-7,76.4,67.8,59.2,62.9,45.4,34.8,69,45,30,30.12,29.99,6,1,6,0.00
2014-11-8,75.3,66.8,59.6,65.0,54.5,38.9,92,66,41,30.07,29.96,6,1,6,0.00
2014-11-9,67.0,63.0,57.1,63.1,60.1,54.8,93,90,86,30.02,29.84,8,1,8,0.00
2014-11-10,68.0,63.5,59.9,59.8,57.1,54.8,87,80,72,29.92,29.86,6,1,7,0.00
2014-11-11,70.8,64.9,62.0,60.2,56.6,54.3,80,75,66,29.98,29.91,6,0,6,0.00
2014-11-12,70.8,64.3,60.3,61.1,57.4,54.4,84,78,70,30.06,29.96,9,0,9,0.00
2014-11-13,70.6,64.2,59.1,61.0,57.2,53.5,85,78,70,30.11,30.03,3,0,5,0.00
2014-11-14,70.4,63.4,58.9,64.4,59.7,56.1,94,88,79,30.07,29.99,3,0,4,0.04
2014-11-15,70.7,62.9,57.1,63.3,58.1,53.9,90,84,75,30.11,30.02,5,0,5,0.00
2014-11-16,59.7,59.4,59.0,56.8,56.3,55.7,90,89,89,30.08,30.05,0,0,0,0.00